Погода в Мыркайском

Россия / Курганская область     55°02′31″N   63°47′10″E
темп.,
°C
ветер,
м/с
пор.,
м/с
влажн.,
%
обл.,
%
осадки,
мм/ч
давл.,
гПа
погр.,
м
18 мая, вт
вт1823:00+20зюз494525 0.3 1015135
02:00+17с3365100 0.2 101531
05:00+15сз3581100 0.5 101576
08:00+21сз2460100 0.3 1015278
11:00+25зсз71238100 0.6 10131338
14:00+27сз6836100 0.1 10122872
17:00+26ссв773567 0.1 10121546
20:00+20с81160100 0.6 1015890
19 мая, ср
ср1923:00+16св6127912 3.8 1017690
02:00+12ссв6127840 0.0 1018495
05:00+10ссв511870 0.0 1021445
08:00+13св79630 0.0 1022847
11:00+17св68455 0.0 10221421
14:00+20св66375 0.0 10221732
17:00+20св56356 0.0 10221904
20:00+17ссв36525 0.0 1022113
20 мая, чт
чт2023:00+13св3461100 0.0 102448
02:00+12вюв225843 0.0 102414
05:00+11ююв11605 0.0 102510
08:00+16з11455 0.0 1025314
11:00+20зсз32365 0.0 10241395
14:00+22з33325 0.0 10231581
17:00+23зсз3431100 0.0 10221623
20:00+20с22455 0.0 102111
21 мая, пт
пт2123:00+16ююз00500 0.0 102111
02:00+15юз22530 0.0 102114
05:00+14з33540 0.0 102220
08:00+20зюз22425 0.0 1022235
11:00+24зюз33320 0.0 10221308
14:00+26юз23250 0.0 10212093
17:00+27ююз33240 0.0 10202285
20:00+22ю33390 0.0 102028
22 мая, сб
сб2223:00+18ю46430 0.0 102085
02:00+16ююз46440 0.0 101970
05:00+15ююз35470 0.0 102061
08:00+21ю57415 0.0 1019311
11:00+25юз563515 0.0 10191265
14:00+27юз683113 0.0 10183185
17:00+27зюз58295 0.0 10182785
20:00+22сз374863 0.0 1018151